When you browse on this site, cookies collect data to enhance your experience and personalize the content and advertising you see.
Visit our Privacy Policy to learn more. By continuing to use the site, you agree to this use of cookies and data.
  • In Germany
  • List of Countries
  • For 7 days
  • Water Temperature
  • Satellite Maps
  • Weather Map
  • Weather Widgets
  • user-avatar
    Login

    Hourly Weather Malanje

    Today, 19 March, Tuesday

    Time Temperature Precipitation Wind Pressure Humidity
    00:00 +19°C° 0.1 mm 0 mps 664 mmHg 94%
    01:00 +20°C° 0 mm 1 mps 664 mmHg 95%
    02:00 +18°C° 0.4 mm 0 mps 664 mmHg 96%
    03:00 +18°C° 0.4 mm 0 mps 664 mmHg 96%
    04:00 +18°C° 0.4 mm 0 mps 664 mmHg 96%
    05:00 +18°C° 0 mm 0 mps 664 mmHg 95%
    06:00 +19°C° 0 mm 0 mps 665 mmHg 94%
    07:00 +19°C° 0 mm 0 mps 665 mmHg 93%
    08:00 +22°C° 0 mm 0 mps 666 mmHg 84%
    09:00 +26°C° 0 mm 1 mps 666 mmHg 76%
    10:00 +29°C° 0 mm 1 mps 667 mmHg 67%
    11:00 +30°C° 0 mm 1 mps 666 mmHg 62%
    12:00 +31°C° 0 mm 1 mps 666 mmHg 57%
    13:00 +33°C° 0 mm 1 mps 666 mmHg 52%
    14:00 +30°C° 0 mm 0 mps 665 mmHg 53%
    15:00 +30°C° 0 mm 0 mps 665 mmHg 54%
    16:00 +29°C° 0 mm 0 mps 664 mmHg 55%
    17:00 +27°C° 0 mm 0 mps 664 mmHg 60%
    18:00 +25°C° 0 mm 0 mps 664 mmHg 66%
    19:00 +23°C° 0 mm 0 mps 663 mmHg 71%
    20:00 +24°C° 0.1 mm 1 mps 664 mmHg 77%
    21:00 +23°C° 0.1 mm 1 mps 664 mmHg 82%
    22:00 +22°C° 0.1 mm 1 mps 664 mmHg 87%
    23:00 +21°C° 0.9 mm 1 mps 664 mmHg 90%

    Tomorrow, 20 March, Wednesday

    Time Temperature Precipitation Wind Pressure Humidity
    00:00 +21°C° 0.9 mm 1 mps 664 mmHg 93%
    01:00 +18°C° 0.9 mm 0 mps 664 mmHg 95%
    02:00 +20°C° 1.5 mm 1 mps 664 mmHg 96%
    03:00 +20°C° 1.5 mm 1 mps 664 mmHg 97%
    04:00 +20°C° 1.5 mm 1 mps 663 mmHg 97%
    05:00 +20°C° 0 mm 1 mps 664 mmHg 97%
    06:00 +21°C° 0 mm 1 mps 664 mmHg 96%
    07:00 +19°C° 0 mm 0 mps 664 mmHg 95%
    08:00 +20°C° 0 mm 0 mps 665 mmHg 92%
    09:00 +21°C° 0 mm 0 mps 665 mmHg 89%
    10:00 +22°C° 0 mm 0 mps 665 mmHg 86%
    11:00 +24°C° 0.5 mm 0 mps 665 mmHg 78%
    12:00 +27°C° 0.5 mm 0 mps 665 mmHg 71%
    13:00 +29°C° 0.5 mm 0 mps 665 mmHg 64%
    14:00 +29°C° 0.6 mm 1 mps 664 mmHg 69%
    15:00 +28°C° 0.6 mm 1 mps 663 mmHg 74%
    16:00 +27°C° 0.6 mm 2 mps 663 mmHg 79%
    17:00 +25°C° 0.2 mm 2 mps 663 mmHg 82%
    18:00 +24°C° 0.2 mm 2 mps 663 mmHg 86%
    19:00 +22°C° 0.2 mm 1 mps 663 mmHg 89%
    20:00 +20°C° 0.6 mm 2 mps 664 mmHg 91%
    21:00 +20°C° 0.6 mm 2 mps 664 mmHg 93%
    22:00 +19°C° 0.6 mm 2 mps 665 mmHg 95%
    23:00 +20°C° 2.6 mm 1 mps 665 mmHg 96%

    Day after tomorrow, 21 March, Thursday

    Time Temperature Precipitation Wind Pressure Humidity
    00:00 +20°C° 2.6 mm 1 mps 665 mmHg 97%
    01:00 +20°C° 2.6 mm 1 mps 665 mmHg 98%
    02:00 +20°C° 2.3 mm 1 mps 665 mmHg 98%
    03:00 +20°C° 2.3 mm 1 mps 664 mmHg 98%
    04:00 +20°C° 2.3 mm 1 mps 664 mmHg 97%
    05:00 +20°C° 0.4 mm 1 mps 664 mmHg 97%
    06:00 +20°C° 0.4 mm 1 mps 664 mmHg 97%
    07:00 +20°C° 0.4 mm 1 mps 665 mmHg 97%
    08:00 +21°C° 0 mm 1 mps 665 mmHg 93%
    09:00 +23°C° 0 mm 1 mps 666 mmHg 88%
    10:00 +24°C° 0 mm 1 mps 666 mmHg 84%
    11:00 +26°C° 0 mm 1 mps 666 mmHg 76%
    12:00 +28°C° 0 mm 1 mps 666 mmHg 67%
    13:00 +30°C° 0 mm 1 mps 665 mmHg 59%
    14:00 +29°C° 0.3 mm 1 mps 665 mmHg 67%
    15:00 +27°C° 0.3 mm 1 mps 664 mmHg 75%
    16:00 +26°C° 0.3 mm 1 mps 663 mmHg 82%
    17:00 +25°C° 0.5 mm 1 mps 663 mmHg 84%
    18:00 +24°C° 0.5 mm 1 mps 663 mmHg 86%
    19:00 +23°C° 0.5 mm 1 mps 664 mmHg 88%
    20:00 +22°C° 1.6 mm 1 mps 664 mmHg 90%
    21:00 +21°C° 1.6 mm 2 mps 665 mmHg 91%
    22:00 +21°C° 1.6 mm 2 mps 665 mmHg 93%
    23:00 +20°C° 0.5 mm 2 mps 665 mmHg 92%

    22 March, Friday

    Time Temperature Precipitation Wind Pressure Humidity
    00:00 +20°C° 0.5 mm 2 mps 664 mmHg 92%
    01:00 +20°C° 0.5 mm 1 mps 664 mmHg 91%
    02:00 +20°C° 0.1 mm 1 mps 664 mmHg 91%
    03:00 +20°C° 0.1 mm 1 mps 663 mmHg 90%
    04:00 +19°C° 0.1 mm 1 mps 663 mmHg 90%
    05:00 +20°C° 0 mm 1 mps 663 mmHg 90%
    06:00 +20°C° 0 mm 1 mps 664 mmHg 91%
    07:00 +20°C° 0 mm 1 mps 664 mmHg 91%
    08:00 +22°C° 0 mm 1 mps 665 mmHg 86%
    09:00 +24°C° 0 mm 1 mps 665 mmHg 80%
    10:00 +26°C° 0 mm 1 mps 666 mmHg 74%
    11:00 +28°C° 0 mm 1 mps 666 mmHg 68%
    12:00 +29°C° 0 mm 1 mps 666 mmHg 61%
    13:00 +31°C° 0 mm 1 mps 666 mmHg 55%
    14:00 +31°C° 0 mm 1 mps 665 mmHg 59%
    15:00 +30°C° 0 mm 1 mps 665 mmHg 63%
    16:00 +29°C° 0 mm 1 mps 664 mmHg 67%
    17:00 +27°C° 0.1 mm 1 mps 664 mmHg 72%
    18:00 +25°C° 0.1 mm 1 mps 664 mmHg 77%
    19:00 +21°C° 0.1 mm 0 mps 664 mmHg 82%
    20:00 +21°C° 0.1 mm 0 mps 664 mmHg 82%
    21:00 +20°C° 0.1 mm 0 mps 664 mmHg 83%
    22:00 +20°C° 0.1 mm 0 mps 665 mmHg 84%
    23:00 +19°C° 0 mm 0 mps 664 mmHg 86%

    23 March, Saturday

    Time Temperature Precipitation Wind Pressure Humidity
    00:00 +20°C° 0 mm 1 mps 664 mmHg 89%
    01:00 +20°C° 0 mm 1 mps 664 mmHg 92%
    02:00 +20°C° 0 mm 1 mps 664 mmHg 92%
    03:00 +19°C° 0 mm 1 mps 664 mmHg 92%
    04:00 +19°C° 0 mm 1 mps 663 mmHg 93%
    05:00 +20°C° 0 mm 1 mps 664 mmHg 92%
    06:00 +20°C° 0 mm 1 mps 665 mmHg 90%
    07:00 +21°C° 0 mm 1 mps 665 mmHg 89%
    08:00 +23°C° 0 mm 1 mps 666 mmHg 81%
    09:00 +25°C° 0 mm 1 mps 666 mmHg 73%
    10:00 +28°C° 0 mm 2 mps 667 mmHg 65%
    11:00 +29°C° 0.2 mm 2 mps 666 mmHg 62%
    12:00 +30°C° 0.2 mm 2 mps 666 mmHg 58%
    13:00 +31°C° 0.2 mm 2 mps 665 mmHg 55%
    14:00 +31°C° 0 mm 1 mps 665 mmHg 57%
    15:00 +31°C° 0 mm 1 mps 664 mmHg 59%
    16:00 +31°C° 0 mm 1 mps 664 mmHg 62%
    17:00 +29°C° 0.2 mm 1 mps 664 mmHg 67%
    18:00 +27°C° 0.2 mm 1 mps 664 mmHg 73%
    19:00 +23°C° 0.2 mm 0 mps 664 mmHg 79%
    20:00 +24°C° 0.5 mm 1 mps 664 mmHg 82%
    21:00 +23°C° 0.5 mm 1 mps 664 mmHg 85%
    22:00 +22°C° 0.5 mm 1 mps 664 mmHg 89%
    23:00 +22°C° 1.6 mm 1 mps 664 mmHg 91%

    24 March, Sunday

    Time Temperature Precipitation Wind Pressure Humidity
    00:00 +21°C° 1.6 mm 2 mps 664 mmHg 93%
    01:00 +20°C° 1.6 mm 2 mps 664 mmHg 94%
    02:00 +20°C° 0.1 mm 2 mps 664 mmHg 95%
    03:00 +20°C° 0.1 mm 2 mps 664 mmHg 96%
    04:00 +21°C° 0.1 mm 1 mps 664 mmHg 97%
    05:00 +21°C° 0.2 mm 1 mps 664 mmHg 97%
    06:00 +21°C° 0.2 mm 1 mps 665 mmHg 97%
    07:00 +21°C° 0.2 mm 1 mps 665 mmHg 96%
    08:00 +23°C° 0.7 mm 1 mps 665 mmHg 92%
    09:00 +25°C° 0.7 mm 1 mps 666 mmHg 87%
    10:00 +26°C° 0.7 mm 1 mps 666 mmHg 83%
    11:00 +28°C° 0.4 mm 1 mps 666 mmHg 74%
    12:00 +30°C° 0.4 mm 1 mps 665 mmHg 65%
    13:00 +32°C° 0.4 mm 1 mps 665 mmHg 56%
    14:00 +31°C° 0.2 mm 1 mps 665 mmHg 59%
    15:00 +30°C° 0.2 mm 1 mps 664 mmHg 62%
    16:00 +29°C° 0.2 mm 1 mps 664 mmHg 65%
    17:00 +27°C° 1.1 mm 1 mps 664 mmHg 73%
    18:00 +25°C° 1.1 mm 1 mps 664 mmHg 81%
    19:00 +23°C° 1.1 mm 1 mps 664 mmHg 89%
    20:00 +22°C° 0 mm 1 mps 664 mmHg 91%
    21:00 +22°C° 0 mm 1 mps 664 mmHg 93%
    22:00 +21°C° 0 mm 1 mps 664 mmHg 96%
    23:00 +21°C° 0.2 mm 1 mps 664 mmHg 96%
    Show more